FREGAT DEB, 45641

Orbit data source: Space-Track

FREGAT DEB, 45641 is space debris in LEO originally from a launch on Mon, 18 Jul 2011 UTC launched from the Tyuratam Missile And Space Complex (TTMTR). Debris objects in space refer to the collection of defunct objects orbiting the Earth. Examples of debris include non-operational satellites, rocket bodies, and fragments generated from explosions, collisions, or faulty payload assembly.

Loading next visibility...
Identifier
45641, 2011-037AH
Orbit
LEO
Last TLE update
10 hours ago
Origin
Manufacturer
Lavochkin
Mission
Spacecraft
Bus & Motor
Unknown
Mass
Unknown
Launch date (UTC)
2011-07-18 (14 years ago)
Launch vehicle
Unknown
Launch site
Tyuratam Missile And Space Complex (TTMTR)
Object type
Payload
Rocket body
Debris
Shape & HBR
Unknown
Radar Cross Section
Medium (>0.1 m² and <1 m²)

Expand to show TLE details & history

TLE from 10 hours ago
0 FREGAT DEB
1 45641U 11037AH  25128.85796531  .00092537  00000-0  35545-2 0  9994
2 45641  51.5889  87.3645 0647572   8.4691 352.6572 14.24913184227648
Epoch: 2025-05-08T20:35Z
Definitive object data (Epoch: 2025-05-08T20:35:28.202Z)
Latitude
-0.00006°
Longitude
-88.42549°
Altitude
348.449 km
Speed
7.944 km/s
True Right ascension
05h 49m 27s
True Declination
0° 00' 00"
Sunlit
Object was in daylight at TLE epoch
Visualization TLE readout
Latitude
-41.82005°
Longitude
-134.98907°
Altitude
620.648 km
Speed
7.654 km/s
Apparent Right ascension
02h 39m 31s
Apparent Declination
-40° 44' 05"
Sunlit
Object is in daylight
Visualization observer readout
Local Sidereal Time
14:35:35
Azimuth
222.133° SW
Elevation
-88.891°
Doppler factor
1
Orbital elements
Apogee altitude
1,274.713 km
Perigee altitude
343.84 km
Semi-major axis
7,187.413 km
Eccentricity
0.0647572
Inclination
51.5889°
RAAN
87.3645°
Arg. of periapsis
8.4691°
True anomaly
351.62639°
Mean anomaly
352.6572°
Eccentric anomaly
352.15048°
Mean motion
3.56192 °/min
BSTAR
0.0035545
Orbital period
101.07 mins
Loading maneuver chart data...
Loading SW <> Apogee altitude chart data...
Loading historical data...
Loading historical data...
Loading historical data...
Loading historical data...
Loading historical data...
Loading historical data...
Loading historical data...

FREGAT DEB Visibility forecast

Observer location: undefined°, undefined°

Span
Click to sort rows by Start time (UTC) header in descending order
Start Az.
Max El. time (UTC)
Max El. Az.
Max El.
End time (UTC)
End Az.
13 mins2025-05-09 07:09:45.195Z301.959° NW2025-05-09 07:15:45.195Z209.747° SW42.477°2025-05-09 07:22:45.195Z141.534° SSE
6 mins2025-05-09 08:58:45.195Z254.317° W2025-05-09 09:00:45.195Z234.892° WSW16.24°2025-05-09 09:04:45.195Z201.304° SSW
5 mins2025-05-09 23:42:45.195Z206.101° SW2025-05-09 23:44:45.195Z101.486° ESE37.616°2025-05-09 23:47:45.195Z59.744° ENE
4 mins2025-05-10 01:28:45.195Z313.332° NW2025-05-10 01:29:45.195Z338.627° N23.818°2025-05-10 01:32:45.195Z33° NE
5 mins2025-05-10 03:14:45.195Z335.886° NNW2025-05-10 03:16:45.195Z9.283° NNE19.271°2025-05-10 03:19:45.195Z47.426° ENE
9 mins2025-05-10 04:59:45.195Z327.257° NNW2025-05-10 05:02:45.195Z17.133° NNE31.425°2025-05-10 05:08:45.195Z91.521° ESE
|